CW9790 Weather Reports


time (UTC)temp
C
wind
direction
speed
KPH
gust
KPH
rain 1hr
cm
rain 24hr
cm
rain mn
cm
humidity
%
barometer
mb
20260906235017 29 0.0 0.0 0.00 0.00 0.00 60 1010.4
20260906234057 30 0.0 0.0 0.00 0.00 0.00 61 1010.5
20260906233017 29 0.0 0.0 0.00 0.00 0.00 60 1010.6
20260906232016 29 0.0 0.0 0.00 0.00 0.00 59 1010.6
20260906231016 29 0.0 0.0 0.00 0.00 0.00 61 1010.6
20260906230058 29 0.0 3.2 0.00 0.00 0.00 61 1010.7
20260906225016 29 135 1.6 6.4 0.00 0.00 0.00 61 1011.0
20260906224016 29 135 1.6 6.4 0.00 0.00 0.00 62 1011.0
20260906223016 29 180 3.2 8.0 0.00 0.00 0.00 62 1011.3
20260906222016 29 135 1.6 9.7 0.00 0.00 0.00 62 1011.4
20260906221037 28 135 1.6 9.7 0.00 0.00 0.00 64 1011.4
20260906220016 29 158 1.6 9.7 0.00 0.00 0.00 64 1011.5
20260906215016 28 135 1.6 6.4 0.00 0.00 0.00 65 1011.4
20260906214016 28 135 1.6 6.4 0.00 0.00 0.00 66 1011.6
20260906213017 28 135 1.6 6.4 0.00 0.00 0.00 67 1011.7
20260906212016 28 135 1.6 8.0 0.00 0.00 0.00 67 1011.8
20260906211016 28 90 3.2 8.0 0.00 0.00 0.00 67 1011.8
20260906210038 28 90 3.2 8.0 0.00 0.00 0.00 66 1011.8
20260906205018 29 68 4.8 9.7 0.00 0.00 0.00 65 1011.9
20260906204018 30 68 4.8 11.3 0.00 0.00 0.00 63 1012.0
20260906203036 30 45 3.2 8.0 0.00 0.00 0.00 63 1012.1
20260906202018 30 45 3.2 8.0 0.00 0.00 0.00 62 1012.0
20260906201018 30 23 3.2 9.7 0.00 0.00 0.00 62 1012.0
20260906200017 29 45 3.2 8.0 0.00 0.00 0.00 61 1012.0
20260906195038 30 68 4.8 9.7 0.00 0.00 0.00 62 1012.0
20260906194018 30 68 4.8 16.1 0.00 0.00 0.00 61 1012.0
20260906193017 30 45 4.8 9.7 0.00 0.00 0.00 60 1012.0
20260906192019 30 45 4.8 9.7 0.00 0.00 0.00 59 1012.3
20260906191018 31 45 6.4 20.9 0.00 0.00 0.00 57 1012.5
20260906190019 31 68 6.4 14.5 0.00 0.00 0.00 57 1012.6
20260906185018 31 23 6.4 16.1 0.00 0.00 0.00 57 1012.6
20260906184017 32 23 4.8 11.3 0.00 0.00 0.00 51 1012.7
20260906183017 33 0 4.8 9.7 0.00 0.00 0.00 51 1013.0
20260906182018 34 0 3.2 12.9 0.00 0.00 0.00 47 1013.3
20260906181017 35 135 3.2 11.3 0.00 0.00 0.00 42 1013.4
20260906180039 36 135 3.2 9.7 0.00 0.00 0.00 40 1013.7
20260906175017 36 135 3.2 9.7 0.00 0.00 0.00 41 1013.9
20260906174017 35 45 3.2 8.0 0.00 0.00 0.00 44 1013.9
20260906173017 35 90 3.2 8.0 0.00 0.00 0.00 45 1014.1
20260906172017 33 135 3.2 8.0 0.00 0.00 0.00 49 1014.1
20260906171017 32 203 3.2 8.0 0.00 0.00 0.00 53 1014.1
20260906170017 32 158 3.2 9.7 0.00 0.00 0.00 52 1014.1
20260906165017 32 225 3.2 9.7 0.00 0.00 0.00 54 1014.1
20260906164017 32 225 3.2 8.0 0.00 0.00 0.00 58 1014.2
20260906163017 31 248 3.2 9.7 0.00 0.00 0.00 57 1014.2
20260906162017 31 135 3.2 11.3 0.00 0.00 0.00 59 1014.0
20260906161018 31 135 4.8 9.7 0.00 0.00 0.00 59 1014.0
20260906160018 31 225 3.2 8.0 0.00 0.00 0.00 58 1013.9
20260906155017 30 203 3.2 8.0 0.00 0.00 0.00 63 1014.0
20260906154018 30 225 3.2 8.0 0.00 0.00 0.00 64 1013.9
20260906153017 29 225 3.2 9.7 0.00 0.00 0.00 67 1013.6
20260906152017 28 225 3.2 14.5 0.00 0.00 0.00 68 1013.5
20260906151018 28 135 1.6 9.7 0.00 0.00 0.00 71 1013.5
20260906150017 27 225 3.2 8.0 0.00 0.00 0.00 73 1013.5
20260906145018 27 180 3.2 8.0 0.00 0.00 0.00 74 1013.5
20260906144017 26 203 3.2 8.0 0.00 0.00 0.00 75 1013.3
20260906143017 26 180 3.2 11.3 0.00 0.00 0.00 78 1013.4
20260906142016 25 135 3.2 9.7 0.00 0.00 0.00 79 1013.3
20260906141038 25 135 1.6 8.0 0.00 0.00 0.00 82 1013.5
20260906140017 24 158 1.6 6.4 0.00 0.00 0.00 83 1013.1
20260906135016 23 158 1.6 6.4 0.00 0.00 0.00 85 1013.1
20260906134017 23 158 1.6 6.4 0.00 0.00 0.00 86 1012.9
20260906133016 23 135 1.6 4.8 0.00 0.00 0.00 87 1012.8
20260906132038 22 0.0 0.0 0.00 0.00 0.00 88 1012.6
20260906131017 22 0.0 0.0 0.00 0.00 0.00 88 1012.6
20260906130017 22 0.0 0.0 0.00 0.00 0.00 87 1012.4
20260906125016 22 0.0 0.0 0.00 0.00 0.00 87 1012.2
20260906124016 22 0.0 0.0 0.00 0.00 0.00 86 1012.2
20260906123037 22 0.0 0.0 0.00 0.00 0.00 86 1012.1
20260906122017 22 0.0 0.0 0.00 0.00 0.00 85 1011.9
20260906121016 22 0.0 0.0 0.00 0.00 0.00 85 1012.0
20260906120017 22 0.0 0.0 0.00 0.00 0.00 85 1012.0
20260906115016 22 0.0 0.0 0.00 0.00 0.00 85 1011.9
20260906114016 22 0.0 0.0 0.00 0.00 0.00 85 1011.7
20260906113017 22 0.0 0.0 0.00 0.00 0.00 85 1011.6
20260906112016 22 0.0 0.0 0.00 0.00 0.00 85 1011.4
20260906111016 22 0.0 0.0 0.00 0.00 0.00 85 1011.7
20260906110016 22 0.0 0.0 0.00 0.00 0.00 85 1011.5
20260906105016 22 0.0 0.0 0.00 0.00 0.00 85 1011.4
20260906104017 22 0.0 0.0 0.00 0.00 0.00 85 1011.6
20260906103016 22 0.0 0.0 0.00 0.00 0.00 84 1011.5
20260906102036 22 0.0 0.0 0.00 0.00 0.00 84 1011.5
20260906101017 22 0.0 0.0 0.00 0.00 0.00 84 1011.1
20260906100036 22 0.0 0.0 0.00 0.00 0.00 83 1011.2
20260906095016 22 0.0 0.0 0.00 0.00 0.00 83 1011.3
20260906094016 22 0.0 0.0 0.00 0.00 0.00 82 1011.4
20260906093036 23 0.0 0.0 0.00 0.00 0.00 81 1011.5
20260906092016 23 0.0 0.0 0.00 0.00 0.00 80 1011.7
20260906091036 23 0.0 0.0 0.00 0.00 0.00 80 1011.9
20260906090018 23 0.0 0.0 0.00 0.00 0.00 79 1012.0
20260906085019 23 0.0 0.0 0.00 0.00 0.00 79 1012.1
20260906084018 23 0.0 0.0 0.00 0.00 0.00 78 1011.9
20260906083018 23 0.0 0.0 0.00 0.00 0.00 78 1012.0
20260906082018 24 0.0 3.2 0.00 0.00 0.00 77 1012.1
20260906081018 24 158 1.6 6.4 0.00 0.00 0.00 77 1012.1
20260906080100 24 0.0 4.8 0.00 0.00 0.00 76 1012.1
20260906075017 25 0.0 4.8 0.00 0.00 0.00 76 1012.3
20260906074018 25 135 1.6 6.4 0.00 0.00 0.00 76 1012.5
20260906073018 25 135 1.6 8.0 0.00 0.00 0.00 76 1012.8
20260906072120 25 180 3.2 9.7 0.00 0.00 0.00 76 1012.9
20260906071045 25 113 1.6 8.0 0.00 0.00 0.00 76 1012.8
20260906070017 25 0.0 1.6 0.00 0.00 0.00 75 1012.9
20260906065018 25 0.0 3.2 0.00 0.00 0.00 75 1012.9
20260906064017 25 0.0 3.2 0.00 0.00 0.00 74 1012.9
20260906063018 25 135 1.6 8.0 0.00 0.00 0.00 74 1012.9
20260906062018 26 135 1.6 8.0 0.00 0.00 0.00 74 1012.9
20260906061038 26 135 1.6 8.0 0.00 0.00 0.00 73 1013.2
20260906060017 26 0.0 6.4 0.00 0.00 0.00 73 1013.2
20260906055018 26 158 1.6 9.7 0.00 0.00 0.00 72 1013.2
20260906054017 26 135 1.6 8.0 0.00 0.00 0.00 72 1013.2
20260906053018 26 0.0 3.2 0.00 0.00 0.00 70 1013.0
20260906052017 26 158 1.6 9.7 0.00 0.00 0.00 69 1013.1
20260906051017 26 135 1.6 6.4 0.00 0.00 0.00 68 1012.9
20260906050019 26 0.0 9.7 0.00 0.00 0.00 66 1012.9
20260906045017 27 135 1.6 8.0 0.00 0.00 0.00 65 1013.1
20260906044017 27 135 3.2 8.0 0.00 0.00 0.00 64 1012.9
20260906043017 26 158 1.6 8.0 0.00 0.00 0.00 64 1012.8
20260906042016 26 225 1.6 17.7 0.00 0.00 0.00 65 1012.4
20260906041017 26 0.0 0.0 0.00 0.00 0.00 65 1012.1
20260906040016 26 0.0 0.0 0.00 0.00 0.00 65 1012.1
20260906035016 26 0.0 0.0 0.00 0.00 0.00 64 1012.1
20260906034016 26 0.0 0.0 0.00 0.00 0.00 63 1011.8
20260906033016 26 0.0 0.0 0.00 0.00 0.00 63 1011.8
20260906032017 26 0.0 0.0 0.00 0.00 0.00 62 1011.6
20260906031017 26 0.0 0.0 0.00 0.00 0.00 62 1011.4
20260906030016 26 0.0 0.0 0.00 0.00 0.00 62 1011.3
20260906025017 27 0.0 0.0 0.00 0.00 0.00 61 1011.0
20260906024016 27 0.0 0.0 0.00 0.00 0.00 60 1010.7
20260906023016 27 0.0 0.0 0.00 0.00 0.00 60 1010.7
20260906022017 27 0.0 0.0 0.00 0.00 0.00 59 1010.5
20260906021016 28 0.0 0.0 0.00 0.00 0.00 58 1010.4
20260906020016 28 0.0 0.0 0.00 0.00 0.00 57 1010.2
20260906015016 28 0.0 0.0 0.00 0.00 0.00 57 1010.2
20260906014016 29 0.0 0.0 0.00 0.00 0.00 55 1010.0
20260906013016 30 0.0 0.0 0.00 0.00 0.00 55 1009.9
20260906012016 30 0.0 0.0 0.00 0.00 0.00 54 1010.0
20260906011016 30 0.0 0.0 0.00 0.00 0.00 53 1009.9
20260906010016 30 0.0 6.4 0.00 0.00 0.00 52 1009.8
20260906005018 31 0.0 6.4 0.00 0.00 0.00 52 1009.9
20260906004016 31 0.0 3.2 0.00 0.00 0.00 51 1010.1
20260906003016 32 158 1.6 6.4 0.00 0.00 0.00 50 1010.0
20260906002017 32 135 1.6 6.4 0.00 0.00 0.00 49 1009.9
20260906001016 33 90 1.6 8.0 0.00 0.00 0.00 47 1009.9
20260906000017 33 113 3.2 9.7 0.00 0.00 0.00 46 1010.0